• în România
  • Lista ţărilor
  • Pe 7 zile
  • Temperatura apei
  • Hartă satelitară
  • Meteo pe hartă
  • Widget-uri
  • user-avatar
    Intrare

    Meteo pe oră la Vlorë

    Astăzi, 19 August, Duminică

    Timp Temperatura Precipitaţii Vânt Presiune Umiditate
    00:00 +28°C° 0 mm 4 m/s 760 mmHg 59%
    01:00 +27°C° 0 mm 3 m/s 760 mmHg 58%
    02:00 +27°C° 0 mm 3 m/s 760 mmHg 58%
    03:00 +27°C° 0 mm 3 m/s 759 mmHg 57%
    04:00 +27°C° 0 mm 3 m/s 759 mmHg 57%
    05:00 +28°C° 0,1 mm 3 m/s 760 mmHg 55%
    06:00 +28°C° 0,1 mm 3 m/s 760 mmHg 54%
    07:00 +30°C° 0 mm 3 m/s 760 mmHg 49%
    08:00 +31°C° 0,1 mm 3 m/s 760 mmHg 45%
    09:00 +34°C° 0,1 mm 2 m/s 760 mmHg 41%
    10:00 +35°C° 0,1 mm 2 m/s 760 mmHg 37%
    11:00 +35°C° 0 mm 3 m/s 760 mmHg 35%
    12:00 +36°C° 0 mm 3 m/s 760 mmHg 34%
    13:00 +36°C° 0 mm 4 m/s 760 mmHg 32%
    14:00 +35°C° 0 mm 4 m/s 760 mmHg 35%
    15:00 +35°C° 0 mm 4 m/s 759 mmHg 38%
    16:00 +34°C° 0 mm 4 m/s 759 mmHg 41%
    17:00 +33°C° 0 mm 4 m/s 759 mmHg 44%
    18:00 +32°C° 0 mm 4 m/s 759 mmHg 48%
    19:00 +29°C° 0 mm 4 m/s 759 mmHg 51%
    20:00 +29°C° 0 mm 3 m/s 759 mmHg 50%
    21:00 +28°C° 0 mm 3 m/s 759 mmHg 49%
    22:00 +28°C° 0 mm 3 m/s 760 mmHg 48%
    23:00 +28°C° 0 mm 3 m/s 759 mmHg 46%

    Mâine, 20 August, Luni

    Timp Temperatura Precipitaţii Vânt Presiune Umiditate
    00:00 +27°C° 0 mm 3 m/s 759 mmHg 44%
    01:00 +27°C° 0 mm 3 m/s 759 mmHg 43%
    02:00 +27°C° 0 mm 3 m/s 759 mmHg 43%
    03:00 +26°C° 0 mm 2 m/s 759 mmHg 43%
    04:00 +26°C° 0 mm 2 m/s 759 mmHg 43%
    05:00 +27°C° 0 mm 2 m/s 759 mmHg 44%
    06:00 +28°C° 0 mm 2 m/s 759 mmHg 45%
    07:00 +29°C° 0 mm 2 m/s 759 mmHg 45%
    08:00 +31°C° 0 mm 2 m/s 759 mmHg 41%
    09:00 +33°C° 0 mm 1 m/s 759 mmHg 37%
    10:00 +35°C° 0 mm 1 m/s 759 mmHg 32%
    11:00 +35°C° 0 mm 1 m/s 759 mmHg 32%
    12:00 +36°C° 0 mm 2 m/s 759 mmHg 31%
    13:00 +36°C° 0 mm 3 m/s 759 mmHg 30%
    14:00 +35°C° 0 mm 3 m/s 758 mmHg 35%
    15:00 +34°C° 0 mm 3 m/s 758 mmHg 40%
    16:00 +31°C° 0 mm 2 m/s 758 mmHg 45%
    17:00 +30°C° 0 mm 2 m/s 758 mmHg 48%
    18:00 +29°C° 0 mm 2 m/s 758 mmHg 51%
    19:00 +29°C° 0 mm 2 m/s 758 mmHg 55%
    20:00 +28°C° 0 mm 2 m/s 758 mmHg 57%
    21:00 +27°C° 0 mm 2 m/s 759 mmHg 58%
    22:00 +27°C° 0 mm 2 m/s 759 mmHg 60%
    23:00 +27°C° 0 mm 2 m/s 759 mmHg 60%

    Poimâine, 21 August, Marţi

    Timp Temperatura Precipitaţii Vânt Presiune Umiditate
    00:00 +26°C° 0 mm 2 m/s 759 mmHg 59%
    01:00 +26°C° 0 mm 3 m/s 759 mmHg 59%
    02:00 +26°C° 0 mm 3 m/s 759 mmHg 58%
    03:00 +26°C° 0 mm 2 m/s 759 mmHg 58%
    04:00 +25°C° 0 mm 2 m/s 759 mmHg 58%
    05:00 +26°C° 0 mm 2 m/s 759 mmHg 55%
    06:00 +28°C° 0 mm 2 m/s 759 mmHg 53%
    07:00 +29°C° 0 mm 2 m/s 759 mmHg 51%
    08:00 +31°C° 0 mm 2 m/s 759 mmHg 45%
    09:00 +32°C° 0 mm 1 m/s 760 mmHg 40%
    10:00 +34°C° 0 mm 1 m/s 760 mmHg 35%
    11:00 +35°C° 0 mm 2 m/s 760 mmHg 35%
    12:00 +35°C° 0 mm 2 m/s 759 mmHg 35%
    13:00 +35°C° 0 mm 3 m/s 759 mmHg 36%
    14:00 +34°C° 0 mm 3 m/s 759 mmHg 40%
    15:00 +34°C° 0 mm 2 m/s 759 mmHg 44%
    16:00 +32°C° 0 mm 2 m/s 759 mmHg 48%
    17:00 +31°C° 0 mm 2 m/s 759 mmHg 50%
    18:00 +30°C° 0 mm 2 m/s 759 mmHg 52%
    19:00 +29°C° 0 mm 2 m/s 759 mmHg 54%
    20:00 +29°C° 0 mm 2 m/s 760 mmHg 56%
    21:00 +28°C° 0 mm 2 m/s 760 mmHg 58%
    22:00 +27°C° 0 mm 2 m/s 760 mmHg 60%
    23:00 +27°C° 0 mm 2 m/s 760 mmHg 58%

    22 August, Miercuri

    Timp Temperatura Precipitaţii Vânt Presiune Umiditate
    00:00 +27°C° 0 mm 2 m/s 760 mmHg 57%
    01:00 +27°C° 0 mm 2 m/s 760 mmHg 55%
    02:00 +27°C° 0 mm 2 m/s 760 mmHg 55%
    03:00 +27°C° 0 mm 2 m/s 760 mmHg 55%
    04:00 +26°C° 0 mm 2 m/s 760 mmHg 55%
    05:00 +27°C° 0 mm 2 m/s 760 mmHg 53%
    06:00 +28°C° 0 mm 2 m/s 760 mmHg 52%
    07:00 +29°C° 0 mm 2 m/s 760 mmHg 50%
    08:00 +31°C° 0 mm 2 m/s 760 mmHg 44%
    09:00 +33°C° 0 mm 1 m/s 760 mmHg 39%
    10:00 +35°C° 0 mm 1 m/s 760 mmHg 34%
    11:00 +35°C° 0 mm 1 m/s 760 mmHg 33%
    12:00 +36°C° 0 mm 2 m/s 760 mmHg 33%
    13:00 +36°C° 0 mm 3 m/s 760 mmHg 33%
    14:00 +35°C° 0 mm 3 m/s 760 mmHg 37%
    15:00 +34°C° 0 mm 3 m/s 760 mmHg 42%
    16:00 +33°C° 0 mm 3 m/s 760 mmHg 46%
    17:00 +31°C° 0 mm 3 m/s 760 mmHg 49%
    18:00 +30°C° 0 mm 3 m/s 760 mmHg 52%
    19:00 +29°C° 0 mm 3 m/s 760 mmHg 55%
    20:00 +29°C° 0 mm 3 m/s 760 mmHg 56%
    21:00 +28°C° 0 mm 3 m/s 760 mmHg 56%
    22:00 +27°C° 0 mm 3 m/s 760 mmHg 57%
    23:00 +27°C° 0 mm 3 m/s 760 mmHg 54%

    23 August, Joi

    Timp Temperatura Precipitaţii Vânt Presiune Umiditate
    00:00 +27°C° 0 mm 3 m/s 760 mmHg 52%
    01:00 +26°C° 0 mm 3 m/s 760 mmHg 49%
    02:00 +26°C° 0 mm 2 m/s 760 mmHg 47%
    03:00 +26°C° 0 mm 2 m/s 760 mmHg 44%
    04:00 +26°C° 0 mm 2 m/s 760 mmHg 41%
    05:00 +27°C° 0 mm 2 m/s 760 mmHg 41%
    06:00 +28°C° 0 mm 2 m/s 760 mmHg 40%
    07:00 +29°C° 0 mm 2 m/s 760 mmHg 39%
    08:00 +31°C° 0 mm 2 m/s 760 mmHg 35%
    09:00 +33°C° 0 mm 1 m/s 760 mmHg 32%
    10:00 +35°C° 0 mm 1 m/s 760 mmHg 29%
    11:00 +35°C° 0 mm 1 m/s 760 mmHg 29%
    12:00 +36°C° 0 mm 2 m/s 759 mmHg 29%
    13:00 +36°C° 0 mm 3 m/s 759 mmHg 29%
    14:00 +35°C° 0 mm 3 m/s 759 mmHg 33%
    15:00 +35°C° 0 mm 3 m/s 759 mmHg 37%
    16:00 +34°C° 0 mm 3 m/s 759 mmHg 42%
    17:00 +31°C° 0 mm 2 m/s 759 mmHg 46%
    18:00 +30°C° 0 mm 2 m/s 759 mmHg 50%
    19:00 +29°C° 0 mm 2 m/s 759 mmHg 55%
    20:00 +28°C° 0 mm 1 m/s 759 mmHg 55%
    21:00 +28°C° 0 mm 1 m/s 759 mmHg 56%
    22:00 +28°C° 0 mm 1 m/s 759 mmHg 57%
    23:00 +27°C° 0 mm 1 m/s 759 mmHg 57%

    24 August, Vineri

    Timp Temperatura Precipitaţii Vânt Presiune Umiditate
    00:00 +27°C° 0 mm 2 m/s 759 mmHg 57%
    01:00 +27°C° 0 mm 2 m/s 759 mmHg 57%
    02:00 +26°C° 0 mm 2 m/s 759 mmHg 57%
    03:00 +26°C° 0 mm 2 m/s 758 mmHg 57%
    04:00 +26°C° 0 mm 2 m/s 758 mmHg 57%
    05:00 +27°C° 0 mm 2 m/s 758 mmHg 55%
    06:00 +28°C° 0 mm 1 m/s 758 mmHg 53%
    07:00 +29°C° 0 mm 1 m/s 759 mmHg 51%
    08:00 +30°C° 0 mm 1 m/s 759 mmHg 46%
    09:00 +32°C° 0 mm 1 m/s 759 mmHg 41%
    10:00 +33°C° 0 mm 1 m/s 759 mmHg 37%
    11:00 +35°C° 0 mm 2 m/s 758 mmHg 36%
    12:00 +35°C° 0 mm 2 m/s 758 mmHg 35%
    13:00 +36°C° 0 mm 3 m/s 758 mmHg 34%
    14:00 +35°C° 0 mm 3 m/s 758 mmHg 36%
    15:00 +35°C° 0 mm 3 m/s 757 mmHg 38%
    16:00 +34°C° 0 mm 3 m/s 757 mmHg 40%
    17:00 +33°C° 0 mm 3 m/s 757 mmHg 46%
    18:00 +30°C° 0 mm 2 m/s 757 mmHg 51%
    19:00 +28°C° 0 mm 2 m/s 757 mmHg 56%
    20:00 +28°C° 0 mm 2 m/s 758 mmHg 57%
    21:00 +27°C° 0 mm 2 m/s 758 mmHg 59%
    22:00 +27°C° 0 mm 2 m/s 758 mmHg 60%
    23:00 +27°C° 0 mm 2 m/s 758 mmHg 61%
    Arată mai mult